Winnerscup USA - trainer

Station: Trainer 25 Miles - T Race

Distance: 25 Miles

Release: 02-Mar-2018 10:45

Weather Release:    Arrival:

Wind at Release:     Wind at Arrival:

Temp at Release: °    Temp at Arrival: °

Lofts: 53

Birds: 188

Clocked: 180

10 mph nw wind....
Drops Pos Breeder Pigeon Name Color Sex Ent Arrival Speed To Win Eligible AB
1 Sienna Loft - NC 36771-AU17-AA Good Night BB C 1 11:25:03.00 1098.627 00:00:00 Yes
2 P/R Loft - CA 0280-AU17-GSF The Puritan BC C 1 11:25:07.00 1096.801 00:00:04 Yes
3 - 7641-IF17-FTST 1 11:25:25.00 1088.660 00:00:22
4 Ojibwe Loft - OK 0040-AU17-OJIB TICKELO BB H 1 11:26:28.00 1061.093 00:01:25 Yes
5 Dream Team - VT 0576-AU17-JCZL Maze Runner BB C 1 11:26:39.00 1056.423 00:01:36 Yes
6 G & L Loft - OR 2392-AU17-WPC American Standard BWFP C 1 11:26:42.00 1055.156 00:01:39 Yes
7 Champ Camp - IN 0281-AU17-CHMP Decent Exposure BWFP H 1 11:29:30.00 988.764 00:04:27 Missing
7 - 7625-IF17-FTST 2 11:29:30.00 988.764 00:04:27
9 Daehn/Miele - FL 0401-AU17-NWFI Super Man BB C 1 11:29:34.00 987.285 00:04:31 Yes
9 Nesler Boyz - CA 1800-AU17-TCH Destined Choice RGRI H 1 11:29:34.00 987.285 00:04:31 Yes
11 Daehn/Miele - FL 3831-AU17-FOYS Kaapi BC C 2 11:29:48.00 982.143 00:04:45 Yes
12 Jack's Loft - CA 36711-AU17-ARPU Alamaar RGRZ H 1 11:29:51.00 981.048 00:04:48 Yes
13 Valhalla Loft - CA 0482-AU17-WSJ COBALT BB C 1 11:30:14.00 972.734 00:05:11 Yes
14 Champ Camp - IN 0265-AU17-CHMP Hell Fire BWFP C 2 11:30:20.00 970.588 00:05:17 Yes
15 Sofija Loft - IL 0067-AU17-BEKO Baš Bi Mi Sjelo Taman BBWF C 1 11:30:22.00 969.875 00:05:19 Yes
16 Sarrett Racing Pigeons - TX 7026-AU17-PPH Amarillo Queen BC H 1 11:30:24.00 969.163 00:05:21 Yes
16 1-Tonyloft - VA 5629-AU17-TONY Cinderella BC H 1 11:30:24.00 969.163 00:05:21 Yes
18 Sextons Loft - IA 31762-AU17-AA Ladesma BC H 1 11:30:26.00 968.452 00:05:23 Yes
19 Hi-Cal Connection - CA 0758-AU17-HCAL Blue Rachel BBWF H 1 11:30:28.00 967.742 00:05:25 Yes
20 Daehn/Miele - FL 3840-AU17-FOYS Steady Freddie BB C 3 11:30:32.00 966.325 00:05:29 Yes
21 A P C Loft - TX 17323-AU17-APC Clever Endeavor BCW C 1 11:30:34.00 965.618 00:05:31 Yes
22 Ken Easley-Silvercreek - NM 5156-AU17-ESLY Leanna BCW H 1 11:30:37.00 964.560 00:05:34 Yes
23 Nesler Boyz - CA 1797-AU17-TCH Done It All BC H 2 11:30:38.00 964.207 00:05:35 Yes
24 Sextons Loft - IA 31763-AU17-AA New Apollo BC C 2 11:30:47.00 961.048 00:05:44 Yes
25 Sofija Loft - IL 0011-AU17-BEKO Ludacris BBPD C 2 11:30:50.00 960.000 00:05:47 Yes
26 Acre Farms - CA 0346-AU17-GENE Take 5 BC C 1 11:30:57.00 957.563 00:05:54 Yes
27 Sienna Loft - NC 36773-AU17-AA American Pied BCP C 2 11:31:02.00 955.829 00:05:59 Yes
28 Jimmy Zheng Loft - MS 0628-AU17-ZHNG Born Again BC C 1 11:31:03.00 955.483 00:06:00 Yes
28 Larry Lewis - OK 8158-AU17-TRPC White Matter WHGZ H 1 11:31:03.00 955.483 00:06:00 Yes
30 Team Fujitake - HI 13911-AU17-FOYS Blue Hilo BBWF H 1 11:31:04.00 955.137 00:06:01 Yes
30 Champ Camp - IN 0237-AU17-CHMP Dark Runner SMOK C 3 11:31:04.00 955.137 00:06:01 Yes
32 Jimmy Zheng Loft - MS 0651-AU17-ZHNG Epanema Dream BBWF H 2 11:31:05.00 954.792 00:06:02 Yes
33 Bolgar Loft - CA 15841-AU17-FOYS Darejani SLAT H 3 11:31:06.00 954.447 00:06:03 Yes
33 Jack's Loft - CA 4397-AU17-FOYS Shawnee BBPD C 2 11:31:06.00 954.447 00:06:03 Yes
35 Joe Zarachowicz - MD 2284-AU17-CCC Never Too Late GR C 1 11:31:07.00 954.102 00:06:04 Yes
35 Ojibwe Loft - OK 0042-AU17-OJIB Desert Wren BC H 2 11:31:07.00 954.102 00:06:04 Yes
37 Ganus Family Loft - IN 0223-AU17-GFL Meteor Man DCWP C 1 11:31:08.00 953.757 00:06:05 Yes
37 Racing Pigeon Mall - WA 0717-AU17-RPM Rachel Evans BROZ H 1 11:31:08.00 953.757 00:06:05 Yes
39 Acre Farms - CA 0305-AU17-GENE Blade Runner BB C 2 11:31:10.00 953.069 00:06:07 Yes
40 Sofija Loft - IL 0023-AU17-BEKO Muves BB H 3 11:31:11.00 952.725 00:06:08 Yes
41 Prout Loft - CA 28550-AU17-JEDD TABLOID BC C 1 11:31:13.00 952.038 00:06:10 Yes
42 A B C Loft2 - NY 59750-AU17-ARPU BamBoo BB C 1 11:31:29.00 946.576 00:06:26 Yes
43 Champ Camp - IN 0230-AU17-CHMP Rain Man BB C 4 11:32:19.00 929.905 00:07:16 Yes
44 Spirit In The Sky - IL 0371-AU17-LCC John Paul BB C 1 11:32:27.00 927.292 00:07:24 Yes
44 Canto & Wiltz - MA 10985-AU17-AA Dream City BB C 1 11:32:27.00 927.292 00:07:24 Yes
46 Sofija Loft - IL 0019-AU17-BEKO Baraccuda BB H 4 11:32:29.00 926.641 00:07:26 Yes
47 Larry Lewis - OK 8163-AU17-TRPC Follow The Money BC C 2 11:32:34.00 925.018 00:07:31 Yes
48 A D L Loft - IL 0190-AU17-ADL Allegiant BB C 1 11:32:35.00 924.694 00:07:32 Yes
49 Ganus Family Loft - IN 0955-AU17-GFL Spritz BC C 2 11:32:40.00 923.077 00:07:37 Yes
50 B E T Loft - LA 22500-AU17-AA Hollywood's Top Star BB C 1 11:33:53.00 900.102 00:08:50 Yes
51 Sarrett Racing Pigeons - TX 7049-AU17-PPH Hailea's Run SMOK H 2 11:34:02.00 897.349 00:08:59 Yes
52 Goshentown Lofts - TN 1796-AU17-NPA Dossier 96 BB H 1 11:34:03.00 897.044 00:09:00 Yes
53 Jack's Loft - CA 36718-AU17-ARPU Britanny GR H 3 11:34:22.00 891.290 00:09:19 Yes
54 G & L Loft - OR 2394-AU17-WPC Affirmation BB C 2 11:34:23.00 890.989 00:09:20 Yes
55 Champ Camp - IN 0240-AU17-CHMP Iron Mike BB C 5 11:34:24.00 890.688 00:09:21 Yes
56 A D L Sheila - IL 0220-AU17-ADL Silhouette BB H 1 11:34:26.00 890.088 00:09:23 Yes
56 A B C Loft2 - NY 59757-AU17-ARPU Kryptonite BB C 2 11:34:26.00 890.088 00:09:23 Lost
58 Longjohn Loft - OK 1183-AU17-FOYS ACHILLES SIL C 1 11:34:32.00 888.291 00:09:29 Yes
59 Nesneb Racing Loft - AL 17142-AU17-MOB Cash Master BC H 1 11:34:33.00 887.992 00:09:30 Yes
60 Nesler Boyz - CA 1798-AU17-TCH Fever Pitch RCPD H 3 11:34:37.00 886.799 00:09:34 Yes
61 Aurelio Aranda - AZ 42210-AU17-AA SHREK BBWF C 1 11:34:38.00 886.501 00:09:35 Yes
62 Champ Camp - IN 0224-AU17-CHMP Turning Point BB C 6 11:35:10.00 877.076 00:10:07 Yes
63 Daehn/Miele - FL 0404-AU17-NWFI Litigator Man BB C 4 11:35:14.00 875.912 00:10:11 Yes
64 A B C Loft2 - NY 59759-AU17-ARPU Cleopatra BC H 3 11:35:16.00 875.332 00:10:13 Yes
64 Acre Farms - CA 0342-AU17-GENE Grouponner BC H 3 11:35:16.00 875.332 00:10:13 Yes
66 John Partridge - CA 0619-AU17-PASO Moon Twister BC H 1 11:35:17.00 875.041 00:10:14 Yes
66 Racing Pigeon Mall - WA 0724-AU17-RPM First Edition BB C 2 11:35:17.00 875.041 00:10:14 Yes
66 Red Ass Ranch - TX 0163-AU17-RAR Hulk Hogan's Back SMOK C 1 11:35:17.00 875.041 00:10:14 Yes
69 Tanai Kantisiri - CA 2928-AU17-COM Platinum BB C 1 11:35:18.00 874.751 00:10:15 Yes
70 Daehn/Miele - FL 3839-AU17-FOYS Melany BB H 5 11:35:19.00 874.462 00:10:16 Yes
70 Racing Pigeon Mall - WA 0730-AU17-RPM Opium BB C 3 11:35:19.00 874.462 00:10:16 Yes
72 - 7650-IF17-FTST 4 11:35:20.00 874.172 00:10:17
73 A D L Sheila - IL 0213-AU17-ADL Rockette CWF H 2 11:35:21.00 873.883 00:10:18 Yes
73 Champ Camp - IN 0236-AU17-CHMP Classic Tipp BBWF C 7 11:35:21.00 873.883 00:10:18 Yes
75 Hollywood Lou Loft - FL 0056-AU17-LOU Escapade BC C 1 11:35:22.00 873.594 00:10:19 Yes
76 Sextons Loft - IA 31777-AU17-AA Possible Witness BC C 3 11:35:23.00 873.305 00:10:20 Yes
76 Red Ass Ranch - TX 0149-AU17-RAR Blue Diva BB H 2 11:35:23.00 873.305 00:10:20 Yes
76 Nesneb Racing Loft - AL 17146-AU17-MOB Done That BBWF C 2 11:35:23.00 873.305 00:10:20 Yes
79 Hi-Cal Connection - CA 0779-AU17-HAWI Mad Max BC C 2 11:35:24.00 873.016 00:10:21 Yes
79 Larry Lewis - OK 8146-AU17-TRPC No Exemption BC C 3 11:35:24.00 873.016 00:10:21 Yes
79 Goshentown Lofts - TN 1777-AU17-NPA Whisper BB H 2 11:35:24.00 873.016 00:10:21 Yes
82 Hollywood Lou Loft - FL 0067-AU17-LOU Key Witness SMBB C 2 11:35:25.00 872.727 00:10:22 Yes
82 - 7624-IF17-FTST 5 11:35:25.00 872.727 00:10:22
84 A B C Loft2 - NY 11771-AU17-ARPU Etherium BB C 4 11:35:26.00 872.439 00:10:23 Yes
84 John Partridge - CA 0629-AU17-PASO Americana RC C 2 11:35:26.00 872.439 00:10:23 Yes
84 Dream Team - VT 0827-AU17-JCZL Special Delivery BC H 2 11:35:26.00 872.439 00:10:23 Yes
87 Sienna Loft - NC 36811-AU17-AA Big Blue BB C 3 11:35:28.00 871.863 00:10:25 Yes
87 Dal-Tex R P C - TX 0448-AU17-DLLS Esmeralda BC H 1 11:35:28.00 871.863 00:10:25 Yes
87 Jack's Loft - CA 4395-AU17-FOYS Chosen Pleasure BBPD H 4 11:35:28.00 871.863 00:10:25 Yes
90 Racing Pigeon Mall - WA 0712-AU17-RPM Boxer Rebellion BC C 4 11:35:30.00 871.287 00:10:27 Yes
90 Sextons Loft - IA 31771-AU17-AA The Mediator BC C 4 11:35:30.00 871.287 00:10:27 Yes
92 Aurelio Aranda - AZ 42211-AU17-AA Mind Game BB C 2 11:35:31.00 871.000 00:10:28 Yes
93 Jack's Loft - CA 36716-AU17-ARPU The Magician GR C 5 11:35:32.00 870.712 00:10:29 Yes
93 Larry Lewis - OK 8155-AU17-TRPC Mind Raker RCPD C 4 11:35:32.00 870.712 00:10:29 Yes
95 A D L Sheila - IL 0225-AU17-ADL Outlaw Josey Wells BCW C 3 11:35:33.00 870.425 00:10:30 Yes
95 Ganus Family Loft - IN 0295-AU17-GFL Delerionn BC H 3 11:35:33.00 870.425 00:10:30 Yes
97 1-Tonyloft - VA 0639-AU17-ZHNG Check me Twice BC C 2 11:35:34.00 870.138 00:10:31 Yes
97 Sextons Loft - IA 31786-AU17-AA Dialed 4 Dollars WHGZ C 5 11:35:34.00 870.138 00:10:31 Yes
99 Crescendo Loft - NM 18439-AU17-AA Dhronex BB C 1 11:35:35.00 869.852 00:10:32 Yes
100 Daehn/Miele - FL 3832-AU17-FOYS Redefined Exit BC C 6 11:35:36.00 869.565 00:10:33 Yes

There are 262 bird records

Note: These Race Results are unofficial and subject to change until verified by the Race Committee and declared final.